CAPE
1 0 0 0 0 0 0 21 36 154 180 157 91 84 114 415 168 0 183 503 600 612 703 647 817 489 311 427 989 1037 863 541 202 6 0 0 0 0 0 0 0 0 0 0 0 0 0 0 0
0 0 0 0 0 0 0 39 300 264 383 218 293 112 57 786 734 512 652 670 573 627 488 563 831 507 370 924 1343 969 617 128 0 0 0 0 16 0 0 0 0 0 0 0 0 0 0 0 0
0 0 0 0 0 0 0 143 126 187 339 392 467 395 274 637 767 658 587 548 573 385 419 554 721 541 695 1489 1072 616 160 0 0 5 17 40 13 0 0 0 0 0 0 0 0 0 0 0 0
0 0 0 0 0 0 3 82 19 9 30 54 573 609 692 945 862 788 615 409 362 351 354 996 756 785 964 1368 814 285 80 51 42 47 44 19 0 0 0 0 0 0 0 0 0 0 0 0 0
0 0 0 0 0 0 0 117 5 230 57 39 503 787 735 1137 941 703 405 283 261 249 508 582 711 803 1373 1126 606 216 77 47 47 56 53 24 0 0 0 0 0 0 0 0 0 0 0 0 232
0 0 0 0 0 0 80 193 128 62 0 2 874 737 886 1103 913 591 364 242 299 507 501 524 752 1174 1731 1072 512 183 106 51 43 69 41 26 0 0 0 0 0 0 0 0 0 0 16 570 821
0 0 0 0 0 2 97 35 93 70 21 10 191 484 895 1163 955 695 321 210 397 505 547 356 499 981 1441 1184 458 206 123 71 55 83 38 14 0 0 0 0 0 0 0 0 0 0 198 543 364
0 0 0 0 0 0 35 59 35 49 14 1 34 369 880 1118 887 539 326 292 354 446 321 160 398 1164 1054 906 459 231 126 107 75 74 46 25 0 0 0 0 0 0 0 0 82 115 158 330 228
0 0 0 0 0 0 37 55 66 93 44 15 243 167 589 840 635 519 455 409 392 382 240 149 274 934 631 459 297 254 150 152 121 61 99 112 0 0 0 0 0 0 0 30 0 25 469 251 74
0 0 0 0 0 0 32 53 123 137 58 139 561 543 855 705 744 660 558 547 426 440 334 108 441 728 459 516 238 89 22 0 0 16 23 1 0 0 0 0 0 3 8 0 0 411 337 11 0
0 0 0 0 0 0 10 63 113 220 193 63 381 545 903 947 907 913 783 646 381 483 355 131 576 554 451 368 106 33 1 0 0 0 0 0 0 0 0 0 0 0 0 0 0 0 0 0 0
0 0 0 0 0 0 21 70 135 127 50 562 408 663 488 1017 1176 1068 919 902 591 441 277 138 539 624 441 209 135 50 12 0 0 0 0 0 0 0 0 0 0 0 0 0 0 0 0 0 0
0 0 0 0 0 0 3 42 72 87 433 583 712 947 796 578 829 1030 980 974 686 450 321 125 376 678 524 221 103 30 15 16 1 0 0 0 0 0 0 0 0 0 0 0 0 0 0 0 0
0 0 0 0 0 0 0 0 14 41 536 738 832 933 917 897 699 500 266 924 766 626 420 188 284 685 375 200 113 34 18 15 0 0 0 0 0 0 0 0 0 0 0 0 0 0 0 0 0
0 0 0 0 0 0 0 0 0 30 640 668 744 703 330 387 556 494 106 258 781 715 438 266 213 401 322 246 137 64 43 9 0 0 0 0 0 0 0 0 0 0 0 0 0 0 0 0 0
0 0 0 0 0 0 0 0 0 68 635 564 275 28 63 76 61 82 153 177 668 425 340 318 382 398 291 220 106 55 5 0 0 0 0 0 0 0 0 0 0 0 0 0 0 0 0 0 0
0 0 0 0 0 0 0 0 15 171 330 447 163 167 149 113 12 54 136 292 118 331 515 525 610 352 157 57 37 4 0 0 0 0 0 0 0 0 0 0 0 0 0 0 0 0 0 0 0
0 0 0 0 0 0 0 0 0 191 213 442 351 281 191 56 265 574 412 383 395 577 798 757 441 280 74 7 0 0 0 0 0 0 0 0 0 0 0 0 0 0 0 0 0 0 0 0 0
0 0 0 0 0 0 0 0 0 0 27 109 216 170 14 1 190 781 488 585 581 489 734 707 445 42 29 0 0 0 0 0 0 0 0 0 0 0 0 0 0 0 0 0 0 0 0 0 0
0 0 0 0 0 0 0 0 0 0 0 22 63 59 3 0 2 615 967 718 585 629 783 851 443 34 0 0 0 0 0 0 0 0 0 0 0 0 0 0 0 0 0 0 0 0 0 0 0
0 0 0 0 0 0 0 0 0 0 0 0 18 215 162 14 12 381 1123 878 728 710 798 769 351 204 87 0 0 0 0 0 0 0 0 0 0 0 0 0 0 0 0 0 0 0 0 0 0
0 0 0 0 0 0 0 0 0 0 0 0 0 419 663 241 26 1499 1118 1023 797 697 897 871 653 415 91 0 0 0 7 0 0 0 0 0 0 0 0 0 0 0 0 0 0 0 0 0 0
0 0 0 0 0 0 0 0 0 0 0 0 0 388 1267 1397 1611 1662 1217 1022 799 1039 850 839 749 451 30 1 30 14 2 0 0 0 0 0 0 0 0 0 0 0 0 0 0 0 0 0 0
0 0 0 0 0 0 0 0 0 0 0 0 0 247 1268 1535 1585 1589 1368 1204 1012 1002 693 589 800 501 77 35 22 21 1 0 0 0 0 0 0 0 0 0 0 0 0 0 0 0 0 0 0
0 0 0 0 0 0 0 0 0 0 0 0 0 7 692 1341 1462 1369 1334 1256 1180 1258 1041 834 711 652 178 77 65 21 0 0 0 0 0 0 0 0 0 0 0 0 0 0 0 0 0 0 0
0 0 0 0 0 0 0 0 0 0 0 0 2 6 270 633 881 1253 1123 1125 1215 1112 950 924 632 627 378 251 201 68 0 0 0 0 0 0 0 0 0 0 0 0 0 0 0 0 0 0 0
0 0 0 0 0 0 0 0 0 0 0 0 0 124 467 268 228 669 818 983 1087 960 761 743 673 665 663 547 363 107 22 0 0 0 0 0 0 0 0 0 0 0 0 0 0 0 0 0 0
0 0 0 0 0 0 0 0 0 0 0 0 0 162 367 341 99 96 614 795 741 696 647 507 528 525 632 549 340 275 126 3 0 0 0 0 0 0 0 0 0 0 0 0 0 0 0 0 0
0 0 0 0 0 0 0 0 0 0 0 0 0 0 87 333 262 250 194 670 887 791 638 612 576 671 678 763 559 418 265 84 16 0 0 0 0 0 0 0 0 0 0 0 0 0 0 0 0
0 0 0 0 0 0 0 0 0 0 0 0 0 0 0 3 10 148 214 404 1005 968 753 775 824 767 686 678 666 625 380 181 197 148 160 0 0 0 0 0 0 0 0 0 0 0 0 0 0
CIN
-79 0 0 0 0 -43 0 -104 -254 -133 -147 -214 -169 -143 -211 -135 -108 0 -186 -89 -99 -56 -34 -36 -22 -45 -58 -42 -3 -2 -12 -47 -130 -63 0 0 0 0 0 0 0 0 0 0 0 0 0 0 0
0 0 0 0 0 0 0 -199 -179 -191 -144 -191 -201 -230 -220 -122 -135 -138 -94 -83 -95 -75 -81 -59 -26 -44 -50 -4 0 -2 -32 -160 0 0 0 0 -354 0 0 0 0 0 0 0 0 0 0 0 0
0 0 0 0 0 0 0 -190 -237 -264 -242 -220 -135 -188 -232 -191 -136 -124 -145 -151 -115 -131 -102 -62 -34 -48 -27 0 -4 -41 -161 0 0 -171 -260 -363 -405 0 0 0 0 0 0 0 0 0 0 0 0
0 0 0 0 0 0 -52 -189 -287 -289 -263 -229 -214 -195 -169 -155 -134 -167 -150 -181 -169 -128 -116 -35 -40 -28 -17 -2 -23 -125 -229 -276 -315 -329 -326 -363 0 0 0 0 0 0 0 0 0 0 0 0 0
0 0 0 0 0 0 0 -247 -68 -208 -302 -346 -248 -156 -177 -129 -173 -216 -274 -282 -222 -184 -93 -72 -46 -35 -4 -13 -62 -148 -234 -284 -304 -298 -306 -376 0 0 0 0 0 0 0 0 0 0 0 0 -5
0 0 0 0 0 0 -320 -243 -193 -278 -102 -286 -223 -196 -190 -181 -210 -224 -310 -331 -266 -150 -121 -108 -79 -32 -1 -17 -73 -167 -243 -314 -337 -291 -346 -365 0 0 0 0 0 0 0 0 0 0 -7 -3 0
0 0 0 0 0 -8 -214 -335 -245 -343 -506 -222 -354 -287 -238 -180 -195 -245 -299 -297 -191 -155 -131 -175 -142 -51 -11 -22 -128 -203 -264 -314 -331 -288 -344 -296 0 0 0 0 0 0 0 0 0 0 -7 0 -2
0 0 0 0 0 0 -218 -312 -395 -427 -487 -113 -524 -307 -245 -214 -232 -303 -313 -262 -218 -189 -191 -248 -148 -35 -40 -53 -146 -242 -304 -311 -329 -304 -322 -256 0 0 0 0 0 0 0 0 -36 -37 -27 -2 -10
0 0 0 0 0 0 -297 -322 -462 -488 -477 -574 -390 -408 -317 -249 -308 -345 -275 -227 -224 -204 -264 -297 -230 -62 -114 -133 -172 -218 -312 -322 -319 -352 -279 -283 0 0 0 0 0 0 0 -36 0 -46 -17 -5 -31
0 0 0 0 0 0 -268 -310 -381 -364 -401 -397 -297 -393 -351 -324 -314 -297 -266 -266 -275 -267 -284 -392 -204 -119 -166 -130 -264 -408 -310 0 0 -450 -402 -172 0 0 0 0 0 -172 -117 0 0 -13 -10 -14 0
0 0 0 0 0 0 -249 -373 -391 -362 -397 -333 -338 -448 -393 -403 -403 -340 -315 -308 -375 -299 -330 -444 -225 -218 -243 -250 -425 -533 -67 0 0 0 -75 0 0 0 0 0 0 0 0 0 0 0 0 0 0
0 0 0 0 0 0 -280 -349 -299 -313 -350 -332 -384 -426 -532 -398 -396 -479 -354 -264 -275 -367 -402 -524 -277 -222 -292 -416 -484 -587 -642 0 0 0 0 0 0 0 0 0 0 0 0 0 0 0 0 0 0
0 0 0 0 0 0 -112 -134 -270 -329 -345 -364 -327 -280 -370 -462 -444 -429 -393 -305 -298 -343 -431 -568 -403 -247 -294 -450 -574 -672 -681 -641 -242 0 0 0 0 0 0 0 0 0 0 0 0 0 0 0 0
0 0 0 0 0 0 0 0 -88 -462 -389 -338 -319 -271 -261 -355 -390 -464 -532 -343 -353 -359 -393 -572 -499 -319 -421 -520 -583 -675 -662 -590 0 0 0 0 0 0 0 0 0 0 0 0 0 0 0 0 0
0 0 0 0 0 0 0 0 0 -516 -358 -350 -323 -346 -372 -433 -350 -481 -585 -449 -287 -364 -453 -544 -571 -487 -514 -520 -581 -644 -617 -550 0 0 0 0 0 0 0 0 0 0 0 0 0 0 0 0 0
0 0 0 0 0 0 0 0 0 -529 -382 -348 -394 -556 -604 -622 -548 -572 -563 -530 -334 -464 -536 -491 -422 -487 -543 -573 -628 -662 -644 0 0 0 0 0 0 0 0 0 0 0 0 0 0 0 0 0 0
0 0 0 0 0 0 0 0 -479 -498 -407 -368 -465 -517 -543 -500 -570 -669 -565 -525 -560 -514 -431 -448 -448 -535 -609 -672 -694 -583 0 0 0 0 0 0 0 0 0 0 0 0 0 0 0 0 0 0 0
0 0 0 0 0 0 0 0 0 -395 -388 -354 -385 -378 -428 -514 -441 -399 -480 -483 -457 -423 -389 -416 -499 -590 -662 -669 0 0 0 0 0 0 0 0 0 0 0 0 0 0 0 0 0 0 0 0 0
0 0 0 0 0 0 0 0 0 0 -449 -378 -353 -416 -545 -73 -493 -400 -448 -394 -402 -405 -396 -390 -469 -602 -601 0 0 0 0 0 0 0 0 0 0 0 0 0 0 0 0 0 0 0 0 0 0
0 0 0 0 0 0 0 0 0 0 0 -394 -426 -464 -148 0 -74 -398 -392 -397 -427 -366 -326 -301 -417 -580 0 0 0 0 0 0 0 0 0 0 0 0 0 0 0 0 0 0 0 0 0 0 0
0 0 0 0 0 0 0 0 0 0 0 0 -508 -476 -486 -283 -275 -295 -338 -394 -427 -356 -320 -322 -423 -448 -528 0 0 0 0 0 0 0 0 0 0 0 0 0 0 0 0 0 0 0 0 0 0
0 0 0 0 0 0 0 0 0 0 0 0 -30 -426 -345 -405 -54 -246 -358 -380 -415 -410 -363 -354 -395 -422 -554 0 0 0 -93 0 0 0 0 0 0 0 0 0 0 0 0 0 0 0 0 0 0
0 0 0 0 0 0 0 0 0 0 0 0 0 -384 -241 -263 -256 -249 -342 -373 -409 -366 -387 -347 -312 -374 -618 -82 -555 -568 -575 0 0 0 0 0 0 0 0 0 0 0 0 0 0 0 0 0 0
0 0 0 0 0 0 0 0 0 0 0 0 0 -380 -274 -247 -227 -236 -295 -354 -391 -374 -412 -412 -293 -364 -547 -586 -586 -545 -318 0 0 0 0 0 0 0 0 0 0 0 0 0 0 0 0 0 0
0 0 0 0 0 0 0 0 0 0 0 0 0 -61 -355 -287 -283 -300 -334 -335 -334 -297 -314 -318 -310 -274 -442 -520 -508 -547 0 0 0 0 0 0 0 0 0 0 0 0 0 0 0 0 0 0 0
0 0 0 0 0 0 0 0 0 0 0 0 -62 -462 -425 -407 -360 -319 -342 -331 -297 -292 -308 -257 -276 -296 -384 -427 -417 -492 0 0 0 0 0 0 0 0 0 0 0 0 0 0 0 0 0 0 0
0 0 0 0 0 0 0 0 0 0 0 0 0 -338 -329 -452 -546 -412 -402 -386 -354 -338 -346 -339 -360 -349 -329 -342 -354 -452 -511 0 0 0 0 0 0 0 0 0 0 0 0 0 0 0 0 0 0
0 0 0 0 0 0 0 0 0 0 0 0 0 -259 -312 -402 -553 -585 -470 -427 -408 -408 -416 -419 -394 -366 -309 -313 -344 -333 -382 -192 0 0 0 0 0 0 0 0 0 0 0 0 0 0 0 0 0
0 0 0 0 0 0 0 0 0 0 0 0 0 0 -303 -332 -421 -426 -505 -460 -399 -396 -407 -391 -334 -264 -237 -213 -240 -256 -282 -327 -326 0 0 0 0 0 0 0 0 0 0 0 0 0 0 0 0
0 0 0 0 0 0 0 0 0 0 0 0 0 0 0 -381 -458 -435 -476 -441 -344 -319 -335 -303 -274 -258 -256 -238 -216 -183 -225 -257 -236 -240 -216 0 0 0 0 0 0 0 0 0 0 0 0 0 0
Wind_Speed
3 3 2 3 4 4 1 2 3 4 3 4 5 7 7 3 1 3 1 7 15 11 9 11 14 14 13 12 12 13 12 12 11 12 12 12 11 11 10 10 10 11 12 12 12 12 12 12 12
3 2 3 2 5 3 3 5 1 2 4 4 8 7 4 3 4 9 7 11 14 11 7 7 15 14 13 12 14 12 11 11 11 12 12 11 11 11 9 9 10 11 11 11 11 12 12 12 11
2 0 4 5 3 3 4 3 4 4 4 3 4 3 4 6 7 6 9 15 13 10 8 9 15 14 14 12 13 12 11 11 12 11 10 11 10 10 9 9 10 10 11 12 11 11 12 12 11
1 4 5 4 4 6 6 12 5 3 2 4 3 7 5 2 9 9 15 14 13 9 7 14 15 14 13 14 12 11 11 11 10 10 9 9 9 9 9 9 9 11 12 13 13 14 12 10 12
4 3 5 4 6 3 5 16 14 2 2 4 3 4 5 4 15 18 17 14 13 8 6 9 15 14 13 12 11 10 10 10 9 8 8 8 8 8 8 8 9 11 13 14 14 13 11 9 12
4 4 5 3 6 4 3 8 10 5 1 2 4 5 3 10 18 14 15 13 12 12 7 8 16 15 13 11 10 9 9 9 8 8 6 7 7 8 7 8 9 11 11 12 11 11 11 12 16
6 4 3 2 5 3 4 1 2 4 4 3 2 5 4 10 9 14 11 9 11 9 8 6 7 11 15 14 12 10 9 8 7 6 6 6 6 6 6 7 8 9 11 12 12 9 14 17 18
6 5 1 3 3 4 6 3 5 5 2 5 1 6 5 10 13 11 10 7 6 6 4 4 4 4 5 5 12 11 10 8 7 7 6 5 5 6 6 6 7 10 12 13 14 10 15 17 17
4 5 2 4 5 3 1 4 1 2 2 3 6 5 5 15 15 11 11 5 5 4 4 4 4 4 5 4 5 9 11 10 8 7 6 3 2 3 6 4 7 10 12 14 16 13 17 18 16
5 4 7 6 5 5 7 4 6 4 6 3 3 9 15 17 14 14 11 10 10 10 8 6 5 6 5 4 3 4 4 3 3 2 2 1 1 2 3 5 6 9 10 13 15 17 17 11 5
3 5 3 5 3 6 11 4 3 7 1 7 12 15 15 18 15 14 13 14 14 8 7 6 6 6 6 4 3 1 1 1 1 3 3 1 1 2 2 2 3 4 7 4 6 5 4 6 5
1 8 4 8 1 3 10 7 6 5 2 8 14 19 14 17 17 19 16 13 12 12 9 8 6 5 5 3 3 3 2 1 1 1 2 2 1 2 2 1 2 2 2 3 4 3 4 6 6
4 4 7 3 4 5 9 0 1 2 6 8 12 12 13 11 15 13 13 11 8 9 10 10 9 7 5 4 4 4 3 3 2 2 2 3 2 1 1 1 2 2 1 2 3 2 3 5 5
3 5 7 2 5 0 10 6 4 0 9 10 9 10 10 12 7 6 6 12 13 12 10 10 12 10 7 6 6 4 4 3 3 1 2 4 3 2 2 1 1 2 2 2 1 3 3 3 3
3 5 8 5 3 5 5 8 5 8 6 10 9 3 6 4 4 9 4 10 14 12 11 12 12 8 9 7 5 4 4 4 4 3 4 5 3 3 3 3 3 2 1 4 3 3 4 3 2
4 6 4 6 6 5 10 5 1 7 13 10 9 3 6 7 3 8 7 1 11 11 14 11 10 10 8 6 5 4 5 5 4 4 3 4 5 4 4 4 3 2 2 3 2 1 2 3 3
7 1 2 10 2 4 6 5 6 7 7 8 3 4 9 7 8 3 3 4 4 10 12 11 10 10 9 7 5 5 6 4 4 4 2 3 4 5 5 4 2 3 2 3 1 1 2 2 3
3 1 3 5 5 12 12 4 5 4 7 8 4 7 9 6 3 0 6 1 5 6 9 11 10 10 8 5 5 4 3 3 2 3 2 3 4 5 5 4 4 2 3 3 2 2 2 2 2
1 5 7 4 3 8 5 7 4 3 5 5 7 9 8 9 5 4 4 5 7 3 8 10 12 7 8 3 4 3 3 2 1 2 3 4 5 5 6 4 3 3 3 2 3 3 2 0 1
9 1 3 3 5 5 6 5 4 2 3 5 6 8 11 8 7 3 5 6 9 8 6 6 7 7 4 4 3 3 2 1 1 1 2 4 5 4 4 5 4 4 1 1 1 1 1 0 1
3 6 4 7 3 5 5 2 7 3 4 4 4 4 3 8 8 4 5 6 6 7 8 7 8 8 5 6 4 4 3 1 2 1 1 2 5 3 4 4 4 3 2 3 2 2 3 3 1
3 1 7 10 5 4 3 5 4 5 3 6 4 5 5 4 4 4 5 7 8 7 8 8 9 7 5 7 5 6 4 3 3 4 3 3 4 5 4 4 3 3 2 3 3 3 3 3 3
6 4 4 5 4 5 1 4 6 0 6 6 6 7 6 7 5 6 7 7 6 6 7 5 6 5 4 5 5 4 3 2 1 2 4 4 3 4 4 4 3 4 3 3 3 3 3 2 3
4 5 8 4 4 4 5 5 7 6 8 7 6 7 7 6 6 6 3 4 5 5 6 6 7 6 7 6 5 6 6 4 3 2 3 3 2 3 5 5 5 4 4 4 4 3 4 3 3
8 7 5 5 6 5 2 3 10 3 6 8 16 13 10 8 7 5 6 7 7 9 9 7 7 9 8 8 7 7 7 7 7 6 4 4 3 3 6 5 5 4 4 4 4 4 4 5 4
3 7 7 4 3 4 3 3 7 3 7 6 5 9 12 10 8 9 8 6 8 8 7 6 8 9 11 11 11 8 8 5 5 5 4 4 4 4 3 5 5 6 6 5 5 3 4 4 3
2 1 2 8 4 3 3 6 5 3 6 6 6 8 10 10 9 13 11 9 8 8 9 12 12 10 11 11 9 8 7 7 6 6 5 4 5 4 5 5 5 6 6 6 6 4 4 4 4
4 5 3 4 4 2 5 4 5 5 8 8 5 10 10 8 9 8 10 11 9 9 10 8 6 7 7 7 6 5 6 7 6 5 6 6 5 6 6 6 6 6 7 7 6 4 4 5 3
3 2 7 6 4 6 1 7 7 8 9 8 10 7 10 10 9 9 10 9 10 7 6 5 3 5 6 6 5 6 6 6 6 6 6 6 5 6 7 7 7 8 8 7 6 6 6 6 6
3 4 4 7 2 1 4 7 4 5 7 7 11 12 7 9 9 10 7 7 7 7 6 8 8 7 7 6 6 7 5 5 6 6 6 6 7 6 6 6 6 7 8 7 7 9 7 7 6
Wind_Direction
117 177 162 60 48 57 10 208 259 153 24 348 65 94 112 37 97 190 145 124 126 134 142 140 140 136 134 137 136 118 114 112 112 108 104 100 95 89 87 79 75 73 69 66 63 60 58 52 50
159 178 37 89 81 60 316 310 93 272 138 161 100 124 73 78 84 131 114 138 126 128 122 137 140 139 144 143 126 120 121 120 117 113 110 106 104 98 91 84 82 76 71 67 64 61 59 57 55
229 123 85 96 105 136 131 225 255 288 332 297 101 34 104 114 114 134 129 133 124 128 132 150 143 147 148 146 130 133 130 130 123 118 118 114 105 97 91 89 80 73 66 61 59 62 61 63 62
74 11 33 84 253 240 158 182 218 234 303 357 42 72 58 181 140 136 132 128 126 130 138 144 150 150 150 140 138 137 138 130 123 120 112 102 95 86 86 83 74 68 63 63 64 64 65 63 75
42 50 44 5 280 214 250 179 168 234 323 6 326 80 83 51 107 135 138 139 137 135 138 142 152 152 153 146 145 140 134 126 117 112 110 100 87 85 80 73 66 67 66 64 60 57 53 64 103
45 98 55 271 269 330 21 141 149 203 120 277 85 93 58 130 134 152 142 142 145 145 146 160 160 161 156 151 147 141 135 126 119 113 102 88 80 77 72 64 55 59 60 56 49 48 47 97 108
117 91 206 245 267 297 169 186 263 162 151 221 135 81 116 159 153 142 133 131 143 144 152 163 160 167 156 154 156 151 139 134 121 120 113 95 85 78 73 70 63 51 46 41 39 67 84 93 100
110 91 325 245 331 338 174 90 86 33 314 344 6 136 184 174 141 116 108 117 126 133 140 144 148 145 143 158 160 153 150 140 151 153 140 117 79 65 64 54 50 39 28 22 31 95 116 102 95
125 60 297 244 155 240 103 98 294 157 146 325 38 43 135 131 121 116 119 121 117 150 155 157 147 123 125 129 169 164 160 172 172 163 158 98 59 14 11 16 41 34 19 22 45 90 116 108 102
94 110 236 212 153 175 170 136 187 140 163 28 76 84 112 130 148 148 160 169 171 177 178 168 160 139 150 164 169 183 187 146 141 158 160 115 359 337 355 348 16 23 11 31 52 92 102 91 72
171 194 225 265 235 193 147 180 242 139 285 213 171 133 133 155 167 169 179 187 182 174 171 168 172 162 164 159 159 194 331 78 174 177 167 200 271 309 334 338 13 7 5 39 24 49 62 89 94
272 251 180 271 32 121 162 138 187 128 221 138 152 145 151 169 186 179 176 177 181 167 175 165 163 166 184 159 161 172 179 185 251 277 214 189 215 243 259 343 343 28 331 42 62 18 74 96 95
178 268 198 268 277 147 107 219 105 213 109 122 140 160 163 172 198 183 174 167 157 173 178 176 163 171 179 183 166 175 193 180 214 226 202 168 178 166 138 359 33 45 67 110 108 129 80 113 114
260 272 283 163 288 48 124 55 96 63 149 129 137 177 182 188 186 79 145 176 174 167 190 171 182 177 162 187 188 180 178 167 164 169 187 156 154 152 98 82 73 64 56 64 123 119 119 108 139
292 11 341 358 9 35 122 28 341 158 141 140 154 171 277 318 309 105 93 186 183 176 180 180 178 163 170 186 183 169 180 152 153 167 167 138 129 111 122 127 112 91 49 105 63 53 110 99 58
38 49 34 296 33 336 92 288 305 161 146 172 175 183 309 278 84 4 81 205 181 164 171 182 179 176 159 170 162 161 150 148 150 168 160 138 122 113 99 90 78 61 56 77 76 60 56 130 147
14 142 281 321 17 137 66 181 202 135 166 165 183 265 262 315 69 39 46 16 210 152 159 168 157 160 139 139 141 132 131 143 166 144 129 116 119 100 98 92 89 99 65 82 140 96 160 151 165
180 28 296 248 355 81 83 101 68 142 174 181 260 273 276 309 102 51 135 24 121 164 145 141 147 141 127 112 91 77 103 129 144 132 137 118 107 100 116 106 97 97 76 35 100 102 61 155 168
168 166 216 267 145 91 102 114 88 56 124 187 230 250 274 265 251 156 184 145 137 135 122 151 149 132 131 134 123 116 185 174 96 102 125 113 126 143 136 115 94 26 90 176 161 138 158 285 138
261 358 137 24 60 89 141 124 93 125 234 223 239 246 234 247 278 321 121 159 166 159 141 149 133 139 150 131 159 117 116 71 58 110 104 127 136 146 138 126 87 68 28 304 65 121 126 264 199
302 174 192 160 80 82 111 98 149 211 241 203 214 252 255 222 260 206 157 165 162 146 146 137 150 171 166 120 100 82 86 31 98 204 151 197 157 163 149 150 125 124 158 229 212 159 159 194 292
92 205 128 131 103 201 98 246 285 151 149 165 174 162 177 220 259 243 165 160 178 157 144 150 168 183 147 141 163 161 170 181 200 185 174 186 209 174 181 173 140 179 200 225 212 171 164 145 198
197 163 114 135 127 98 221 112 258 214 154 193 185 156 184 184 215 204 201 183 182 146 161 149 140 152 145 168 177 167 178 216 187 159 179 186 187 206 207 199 181 188 203 207 198 184 177 176 167
92 77 45 62 90 33 289 124 283 188 180 163 182 168 177 180 191 225 181 144 140 124 130 150 160 176 167 180 198 195 203 204 191 205 210 215 207 226 228 216 215 212 207 207 205 189 179 189 168
72 52 3 10 14 214 311 73 240 216 199 188 171 169 182 185 194 189 184 175 169 171 174 183 179 192 182 190 196 204 205 198 201 191 196 192 227 233 230 218 223 221 217 209 201 198 193 184 177
57 139 146 189 184 267 282 235 264 315 171 221 194 156 170 183 191 189 194 186 172 183 181 170 182 197 192 192 201 200 200 196 200 195 186 205 210 217 219 227 222 222 218 213 204 202 206 190 181
194 61 179 102 22 64 279 302 323 18 187 218 178 163 186 187 196 198 183 182 179 184 192 192 200 203 199 204 208 203 190 196 204 204 194 200 204 223 225 219 222 226 218 211 197 210 213 173 198
112 152 59 17 134 211 301 289 238 260 247 260 230 203 198 192 192 219 184 184 189 197 199 202 207 215 216 211 206 215 208 196 196 188 206 209 219 212 219 217 210 219 218 210 194 200 209 208 202
12 40 53 109 112 150 156 273 218 231 236 240 245 229 205 204 201 207 215 182 191 196 192 202 177 210 228 220 231 223 214 213 207 199 198 202 209 218 214 221 217 210 212 213 198 207 208 213 209
127 88 109 111 231 87 141 267 250 241 215 202 227 223 224 203 206 211 223 170 185 192 180 192 208 211 222 220 200 218 226 211 221 216 209 191 212 205 214 207 213 216 215 207 206 215 208 210 211